Location: ????????
(55.4000°N, 39.1167°E)
Time: 13:48:07
(UTC+00:00)

Cosmos 2219 Rocket - Pass Details

Date: 19 May 2025
Orbit: 828 x 844 km, 71.0° (Epoch: 20 June)

Event Time Altitude Azimuth Distance (km) Brightness Sun altitude
Rises 22:21:22 0° 323° (NW) 3,400 5.9 -13.5°
Reaches altitude 10° 22:23:59 10° 315° (NW) 2,459 5.0 -13.4°
Maximum altitude 22:29:03 36° 251° (WSW) 1,308 2.9 -13.2°
Enters shadow 22:32:26 19° 197° (SSW) 1,905 3.4 -13.1°
